Regional Weather Roundup
Issued by NWS

Home | Current Version | Previous Version | Text Only | Print | Product List | Glossary Off
Versions: 1 2 3 4 5 6 7 8 9 10 11 12 13 14 15 16 17 18 19 20 21 22 23 24 25 26 27

000
ASUS45 KBOU 210607
RWRCO

WEATHER ROUNDUP FOR COLORADO
NATIONAL WEATHER SERVICE DENVER/BOULDER CO
1200 AM MDT MON AUG 21 2017

NOTE: "FAIR" INDICATES FEW OR NO CLOUDS BELOW 12000 FEET WITH NO
SIGNIFICANT WEATHER AND/OR OBSTRUCTIONS TO VISIBILITY.

COZ001>005-013-030-031-210700-
...NORTHWEST COLORADO...

CITY           SKY/WX    TMP DP  RH WIND       PRES   REMARKS
CRAIG          FAIR      54  42  64 CALM      30.21R
HAYDEN         FAIR      60  38  43 SE5       30.25R
MEEKER         FAIR      58  40  51 E3        30.22R
RABBIT EARS PA FAIR      52  34  50 SE5       30.53S
STEAMBOAT SPGS FAIR      55  40  58 E3        30.26R
WALDEN         FAIR      50  36  57 SE7       30.36S
$$

COZ006>008-011-210700-
...WEST CENTRAL VALLEYS...

CITY           SKY/WX    TMP DP  RH WIND       PRES   REMARKS
GRAND JUNCTION FAIR      78  35  21 NE6       30.06R
MONTROSE       FAIR      69  43  38 SE9       30.16F
EAGLE          FAIR      65  39  38 CALM      30.26R
RIFLE          FAIR      67  37  33 SE8       30.13R
DELTA          FAIR      73  40  30 N3        30.11S
NUCLA          FAIR      70  37  30 CALM      30.22S
$$

COZ017>023-064>068-210700-
...SOUTHWEST COLORADO...

CITY           SKY/WX    TMP DP  RH WIND       PRES   REMARKS
DURANGO        CLOUDY    62  45  53 CALM      30.30R
CORTEZ         FAIR      67  49  52 E3        30.23R
PAGOSA SPRINGS FAIR      58  40  51 CALM      30.36S
TELLURIDE      FAIR      57  39  51 S5        30.45S
WOLF CREEK PAS MOCLDY    46  32  57 SE5       30.67S
$$

COZ009-010-012-014-032>034-037-058>063-210700-
...CENTRAL COLORADO...

CITY           SKY/WX    TMP DP  RH WIND       PRES   REMARKS
ASPEN          FAIR      61  37  41 SW6       30.30R
BUENA VISTA    FAIR      58  42  54 CALM      30.39S
COPPER MTN     FAIR      54  34  47 S14       30.64S
BERTHOUD PASS  FAIR      43  37  81 W7        30.68S
COTTONWOOD PAS MOCLDY    57  36  44 CALM      30.51F
GUNNISON       FAIR      55  41  59 N8        30.33S
KREMMLING      FAIR      61  37  41 CALM      30.32S
LEADVILLE      FAIR      47  35  63 CALM      30.50R
SALIDA         FAIR      65  43  46 SE7       30.44R
SUNLIGHT       FAIR      52  30  43 E6        30.57R
WILKERSON PASS FAIR      46  36  66 W6        30.63F
$$

COZ069>075-210700-
...SAN LUIS VALLEY/SANGRE DE CRISTO MOUNTAINS...

CITY           SKY/WX    TMP DP  RH WIND       PRES   REMARKS
ALAMOSA        FAIR      59  44  57 SE6       30.34R
DEL NORTE      CLOUDY    61  43  51 N3        30.38R
LA VETA PASS   NOT AVBL
SAGUACHE       MOCLDY    61  43  51 CALM      30.38S
$$

COZ035-036-038>040-210700-
...NORTHERN COLORADO FRONT RANGE...

CITY           SKY/WX    TMP DP  RH WIND       PRES   REMARKS
DENVER INTL AP MOCLDY    71  41  33 W8        30.13S
DMNS CITY PARK   N/A     70  43  37 E8        30.14R
AURORA         MOCLDY    68  44  41 SW7       30.16S
FRONT RANGE AP FAIR      72  41  33 SW8       30.15S
ERIE MUNI ARPT FAIR      64  44  47 CALM      30.16S
BOULDER MUN AP FAIR      73  37  27 SW5       30.12S
CENTENNIAL     MOCLDY    72  42  34 SW10      30.17S
BROOMFIELD     NOT AVBL
FORT COLLINS   FAIR      68  54  60 CALM      30.11F
LONGMONT       FAIR      69  46  45 W5        30.12F
$$

COZ041-046-047-076>085-087-088-210700-
...PIKES PEAK/PALMER DIVIDE AND SOUTHERN FOOTHILLS...

CITY           SKY/WX    TMP DP  RH WIND       PRES   REMARKS
COLO. SPRINGS  MOCLDY    67  46  47 N7        30.21F
A. F. ACADEMY  FAIR      57  45  65 N9        30.23F
SCHRIEVER AFB  MOCLDY    70  39  32 NW13      30.20F
CHEYENNE MTN   MOCLDY    71  37  29 W8        30.20F
ELLICOTT       NOT AVBL
FALCON         FAIR      63  41  43 W9        30.26F
FORT CARSON    MOCLDY    69  46  42 N10       30.16F
LIMON          FAIR      64  48  56 W8        30.14F
MONUMENT HILL  FAIR      61  41  48 SW9       30.28F
CANON CITY     PTCLDY    70  52  52 W16       30.18S
WALSENBURG     FAIR      72  46  40 W18G24    30.21S
TRINIDAD       LGT RAIN  68  46  45 NW10      30.18F
$$

COZ042>045-048>051-090-091-210700-
...NORTHEAST COLORADO...

CITY           SKY/WX    TMP DP  RH WIND       PRES   REMARKS
GREELEY ARPT   FAIR      64  58  80 N7        30.09S
AKRON          FAIR      66  61  84 E7        30.07F
BURLINGTON     FAIR      70  62  76 S9        30.05S
WRAY           NOT AVBL
YUMA           FAIR      64  54  68 CALM      30.03F
STERLING       FAIR      72  64  78 E3        30.02F
HOLYOKE        FAIR      68  63  83 NE3       30.03S
FORT MORGAN    FAIR      67  60  79 S3        30.09R
$$

COZ086-089-092>099-210700-
...SOUTHEAST COLORADO...

CITY           SKY/WX    TMP DP  RH WIND       PRES   REMARKS
PUEBLO         FAIR      75  46  35 W15G24    30.08F
LA JUNTA       FAIR      73  51  46 W7        30.04R
LAMAR          FAIR      77  59  53 S16       29.98S
SPRINGFIELD      N/A     70  60  70 SW13      30.10R
$$




USA.gov is the U.S. government's official web portal to all federal, state and local government web resources and services.